Hourly Data Report for September 25, 2017

All times are specified in Local Standard Time (LST). Add 1 hour to adjust for Daylight Saving Time where and when it is observed.

KUGLUKTUK A
NUNAVUT

67°49'00.000" N
115°08'38.000" W
22.60 m
2300903
71938
YCO

Download Data

Hourly Data (September 2017)
Hourly Data Report for September 25, 2017
Temp Definition
°C
Dew Point Temp Definition
°C
Rel Hum Definition
%
Wind Dir Definition
10's deg

Wind Spd Definition
km/h
Visibility Definition
km
Stn Press Definition
kPa
Hmdx Definition


Wind Chill Definition


Weather Definition


TIME
00:00 Legend Double Dagger 2.9 -0.1 80 10 18 24.1 100.62     LegendNANA
01:00 Legend Double Dagger 3.1 0.4 83 10 18 24.1 100.57     LegendNANA
02:00 Legend Double Dagger 2.8 0.9 87 9 16 16.1 100.52     Mainly Clear
03:00 Legend Double Dagger 2.7 0.8 87 10 17 24.1 100.46     LegendNANA
04:00 Legend Double Dagger 2.9 1.2 88 12 13 24.1 100.40     LegendNANA
05:00 Legend Double Dagger 3.3 1.2 86 14 11 24.1 100.35     Mainly Clear
06:00 Legend Double Dagger 3.4 1.3 86 12 4 24.1 100.30     LegendNANA
07:00 Legend Double Dagger 3.0 1.6 91 11 6 24.1 100.25     LegendNANA
08:00 Legend Double Dagger 5.7 3.0 83 17 15 24.1 100.20     Mostly Cloudy
09:00 Legend Double Dagger 6.5 4.1 85 15 8 24.1 100.17     LegendNANA
10:00 Legend Double Dagger 7.8 4.7 81 16 13 19.3 100.13     Rain
11:00 Legend Double Dagger 7.1 5.9 92 16 15 12.9 100.09     Rain
12:00 Legend Double Dagger 7.7 6.3 91 15 8 19.3 100.06     LegendNANA
13:00 Legend Double Dagger 8.9 6.5 85 20 12 24.1 100.05     LegendNANA
14:00 Legend Double Dagger 9.6 6.5 81 23 14 24.1 100.06     Rain
15:00 Legend Double Dagger 9.9 6.7 80 24 16 24.1 100.07     Rain
16:00 Legend Double Dagger 9.3 6.8 84 24 11 24.1 100.09     Rain
17:00 Legend Double Dagger 9.1 6.8 85 24 5 24.1 100.10     Cloudy
18:00 Legend Double Dagger 8.6 6.9 89 26 11 19.3 100.12     Rain
19:00 Legend Double Dagger 8.6 6.8 89 26 12 24.1 100.15     Rain
20:00 Legend Double Dagger 8.4 6.6 88 27 12 24.1 100.17     Cloudy
21:00 Legend Double Dagger 7.7 6.4 91 27 14 24.1 100.21     LegendNANA
22:00 Legend Double Dagger 6.7 5.7 93 29 13 24.1 100.27     LegendNANA
23:00 Legend Double Dagger 6.0 4.9 93 34 18 24.1 100.33     Cloudy

Notes on Data Quality.

Legend

  • E = Estimated
  • M = Missing
  • NA = Not Available
  • ‡ = Partner data that is not subject to review by the National Climate Archives
Date modified: